Wind_Speed
78 78 80 78 75 72 67 63 61 57 56 55 46 44 45 46 41 37 34 36 32 29 27 29 40 32 31 33 34 34 35 32 29 27 26 26 23 20 19 18 14 13 14 13 10
75 68 72 74 75 73 69 64 61 56 56 54 51 53 46 44 42 39 39 36 33 30 31 36 39 27 32 34 37 37 36 32 32 32 29 27 25 23 20 18 17 16 13 13 12
58 74 65 68 68 70 69 64 60 55 57 54 51 51 47 44 43 39 38 36 33 31 38 35 36 40 37 33 35 36 36 37 34 31 30 28 26 25 23 21 19 16 15 14 13
63 67 72 62 62 64 64 63 59 56 54 54 50 50 47 46 43 40 36 37 35 36 39 41 42 42 43 39 39 35 38 33 31 34 32 30 27 26 25 21 19 18 19 17 15
65 63 68 67 59 59 59 59 57 54 53 45 53 50 47 46 44 41 37 36 34 35 43 44 38 38 39 45 43 40 38 34 33 36 34 32 31 27 24 22 20 19 18 16 15
62 66 65 67 64 61 58 57 57 55 54 54 52 50 48 46 45 41 37 35 35 37 42 44 43 41 39 42 45 44 41 38 38 38 36 35 32 30 25 22 21 19 16 15 14
60 65 66 67 67 62 59 57 56 54 54 54 53 51 49 47 46 43 39 37 38 38 40 44 44 40 41 40 42 43 42 41 40 40 39 37 34 29 28 26 23 21 17 16 14
63 69 65 65 66 66 59 59 55 54 53 53 53 52 48 48 46 46 43 40 38 39 41 39 41 41 41 42 43 44 44 44 42 39 38 38 34 32 33 27 25 23 21 18 17
72 69 67 67 68 65 62 57 55 54 53 53 54 55 51 48 48 47 44 41 41 39 40 41 41 43 43 43 43 44 43 42 40 40 41 38 33 35 32 30 28 26 25 21 20
61 67 66 68 66 63 65 59 56 56 56 54 54 55 53 49 49 48 46 42 42 41 41 42 43 41 41 43 44 43 43 43 44 41 40 40 37 37 34 35 32 29 27 24 24
66 67 65 67 68 62 66 65 62 59 53 51 53 53 54 52 50 50 48 45 43 43 42 41 41 42 40 41 40 42 44 45 43 40 39 41 41 40 38 38 34 31 30 27 27
70 73 69 62 62 64 64 63 59 58 58 57 55 55 53 53 52 53 52 51 48 45 44 45 44 42 41 41 42 43 41 42 41 41 42 43 42 40 41 39 35 36 34 31 30
63 73 66 65 70 66 63 66 57 55 54 53 51 54 51 51 50 50 49 47 46 44 44 43 38 40 41 39 38 40 41 43 43 41 43 43 43 42 40 41 40 40 36 35 34
66 60 60 69 66 66 63 61 58 55 56 56 53 49 50 48 51 50 49 47 47 46 46 44 43 44 41 40 41 44 43 43 43 44 44 44 43 41 42 43 40 40 39 38 36
62 62 58 56 61 60 64 63 59 57 58 58 55 51 47 47 49 50 50 49 49 48 49 49 49 47 42 40 39 41 41 42 43 45 47 46 47 40 41 40 38 38 38 38 36
64 61 61 62 58 60 61 65 67 62 67 63 61 58 55 55 52 51 50 48 47 50 49 49 47 46 44 44 44 44 43 44 47 47 49 48 48 52 40 38 35 38 37 37 36
60 67 64 60 59 65 63 64 63 66 61 62 61 61 58 57 57 55 52 52 52 52 51 52 51 48 44 43 45 46 45 45 48 49 50 49 49 50 43 42 40 38 37 35 35
51 53 59 56 62 64 71 65 67 62 61 58 60 59 58 59 56 52 53 53 51 49 49 49 51 49 47 45 42 41 43 44 44 47 47 48 48 48 42 41 41 38 36 38 37
44 59 62 61 68 71 71 66 54 54 61 60 60 61 63 60 57 57 55 52 51 51 52 52 52 51 49 48 47 47 47 46 46 47 49 50 47 49 47 44 43 39 36 34 34
46 44 50 56 60 64 65 56 60 61 58 60 60 57 61 61 60 59 57 55 54 52 50 52 54 53 51 49 49 47 47 46 48 50 51 53 53 53 49 43 43 43 35 34 31
51 54 53 53 61 64 53 55 60 57 53 54 51 57 50 55 58 56 55 55 55 52 50 52 55 54 54 53 51 50 50 50 51 51 52 52 53 51 51 48 46 43 40 48 44
61 59 62 57 66 58 48 47 53 55 49 48 52 56 57 50 51 52 57 56 54 52 52 51 54 54 52 50 51 52 52 52 53 53 55 54 56 55 56 54 52 47 44 40 40
65 59 63 62 64 63 49 48 47 51 46 45 46 45 43 45 48 47 46 57 57 56 54 51 55 56 57 56 58 58 55 56 55 56 59 60 55 55 55 53 55 54 50 49 47
68 65 66 61 57 53 51 57 52 52 52 47 43 43 42 44 49 43 46 46 48 53 59 59 58 57 54 54 54 54 54 52 53 57 58 61 56 59 58 57 58 58 59 56 55
74 74 72 72 65 55 53 50 56 57 55 52 48 45 45 45 44 46 44 45 46 47 49 50 49 49 50 57 57 57 54 54 56 52 61 52 57 44 53 58 60 62 62 63 62
73 76 68 72 68 60 58 55 56 54 52 52 52 50 47 43 45 48 49 48 47 43 43 42 43 45 49 51 52 54 50 50 54 53 57 53 55 38 51 55 58 60 61 62 63
77 73 73 67 64 65 60 61 59 55 55 50 47 49 50 49 47 46 46 45 45 43 42 40 37 37 40 42 46 47 40 48 46 44 43 47 45 44 49 56 59 61 60 60 62
Wind_Direction
217 215 212 213 212 211 211 215 216 218 222 216 215 222 220 222 223 220 221 229 231 225 224 205 203 214 206 197 199 199 199 201 202 199 191 190 188 184 182 187 188 188 196 201 203
227 221 216 213 212 212 210 212 215 216 220 218 213 215 223 221 222 217 219 227 226 217 218 205 200 197 197 202 199 199 202 199 202 201 197 193 190 189 189 188 192 195 191 206 211
223 224 220 215 214 212 211 211 213 213 218 218 216 217 218 219 222 219 221 222 224 220 205 199 194 185 195 207 204 199 199 205 202 201 200 199 195 192 194 192 193 198 199 201 214
218 218 218 218 215 215 212 210 211 212 215 220 213 214 214 217 220 220 219 222 220 218 205 202 205 204 198 200 208 205 204 205 206 205 202 203 201 201 197 194 195 196 206 209 215
213 216 220 219 215 216 214 212 211 211 212 211 215 212 211 214 216 218 221 221 217 214 209 210 212 209 203 200 196 203 210 205 206 209 207 205 205 205 205 200 199 204 209 213 218
207 212 217 216 213 214 216 214 212 211 212 213 215 213 208 211 215 216 215 217 215 211 212 211 210 204 201 203 201 206 205 208 209 210 210 210 207 207 207 210 206 212 211 217 223
204 207 205 211 212 211 214 215 213 211 212 213 214 213 208 208 211 213 214 216 211 208 209 211 207 206 204 202 204 206 205 208 210 212 212 212 212 211 212 213 214 218 218 225 230
209 202 198 205 209 210 211 213 212 212 212 213 212 216 210 209 208 211 210 211 212 208 208 210 208 206 207 207 210 208 206 210 213 214 215 216 212 217 217 215 220 225 229 230 239
203 199 197 202 205 206 208 209 210 211 211 212 212 213 212 209 209 209 212 210 209 210 207 207 208 206 206 208 211 209 212 213 215 218 217 219 214 222 225 222 225 228 234 237 246
208 195 198 204 205 204 206 204 207 209 211 210 210 212 210 211 210 211 211 211 211 213 211 208 211 210 208 211 215 216 216 217 219 218 220 222 220 224 225 229 227 231 238 242 249
198 197 197 197 200 201 208 203 204 206 208 214 213 214 212 209 212 213 210 213 212 214 215 213 214 215 213 215 218 221 221 221 223 219 225 225 223 225 227 232 235 237 241 245 251
203 195 198 196 198 201 206 208 210 212 210 208 210 213 213 212 213 212 211 210 212 214 216 215 215 217 216 217 220 224 227 231 229 228 228 227 225 226 230 234 238 241 243 248 251
201 195 192 194 196 205 208 205 203 206 208 211 213 212 213 212 214 216 216 213 215 216 217 221 222 224 222 220 224 229 230 232 233 233 235 233 231 229 231 234 236 244 247 250 254
193 194 198 197 199 201 202 200 203 203 210 210 209 215 214 214 214 214 213 214 218 219 218 219 220 222 222 222 223 227 231 234 237 238 237 239 237 234 235 237 239 242 249 253 254
196 195 201 205 201 205 206 199 203 204 208 205 208 210 213 215 215 213 216 216 216 219 222 221 222 223 224 225 228 231 234 236 240 241 239 237 243 232 240 240 243 247 250 254 258
195 198 201 203 200 202 204 204 202 203 210 208 205 207 208 211 214 217 216 216 218 220 220 223 224 224 223 226 227 231 233 236 239 241 242 240 241 239 242 249 253 254 255 258 258
197 199 204 201 198 199 201 205 205 207 209 208 208 209 209 210 210 215 216 219 218 220 222 225 226 228 224 227 230 231 232 235 238 241 244 246 246 252 249 251 253 253 259 260 260
194 200 203 200 197 200 204 206 211 213 209 212 212 208 211 208 210 216 216 216 221 223 226 230 232 232 232 232 236 239 242 245 248 248 249 249 249 252 250 252 252 254 254 257 261
194 201 202 204 203 203 207 211 216 216 215 215 213 210 210 211 214 215 217 220 222 223 224 226 228 230 230 232 233 238 241 244 245 247 249 250 253 252 252 252 256 257 255 250 256
199 204 201 205 207 210 213 215 214 218 214 216 216 215 215 216 213 213 216 221 221 225 226 230 231 233 233 233 236 238 240 241 245 248 250 254 254 256 257 263 262 254 249 249 254
199 204 199 201 211 216 216 216 213 218 218 220 221 220 217 223 223 220 220 222 223 226 225 229 231 232 234 235 237 238 239 242 245 247 252 254 256 259 263 264 264 267 262 256 259
201 201 199 198 199 213 216 215 212 216 217 220 217 214 219 221 221 223 225 224 225 228 229 231 235 235 238 240 241 241 242 243 245 247 251 254 254 259 261 264 267 265 263 262 263
201 208 204 206 205 207 207 210 211 211 213 220 210 207 215 218 220 221 221 224 223 224 228 229 231 234 235 236 238 241 241 244 245 247 249 250 258 257 262 267 269 272 270 269 267
203 203 205 204 206 208 208 212 211 212 216 219 212 214 220 217 217 219 218 220 221 225 227 227 230 235 239 246 246 247 248 248 251 252 258 259 261 260 265 265 267 267 268 267 267
203 201 202 205 206 209 211 215 212 215 215 218 218 219 222 220 218 219 220 225 221 223 227 232 234 238 242 243 246 246 246 249 254 258 256 261 261 261 263 265 265 264 266 269 269
193 200 205 210 211 211 216 214 216 219 219 217 217 223 224 220 222 222 217 216 217 220 227 233 240 242 241 242 245 249 251 255 256 259 260 261 260 265 268 269 269 269 267 267 268
196 200 208 210 210 210 214 213 216 219 221 216 220 226 224 222 220 220 219 220 223 228 233 236 238 240 242 243 246 250 256 261 266 264 266 265 267 259 257 262 263 263 263 265 266
Height
5637 5649 5660 5671 5683 5692 5703 5714 5723 5732 5740 5744 5751 5756 5762 5768 5771 5777 5783 5789 5794 5798 5803 5806 5808 5813 5818 5824 5829 5835 5839 5844 5849 5854 5857 5858 5861 5863 5866 5867 5871 5873 5875 5878 5879
5630 5640 5651 5662 5671 5683 5693 5703 5714 5723 5732 5737 5744 5749 5756 5762 5767 5771 5777 5783 5789 5793 5799 5804 5805 5809 5817 5821 5825 5830 5837 5842 5846 5849 5854 5856 5859 5861 5864 5866 5869 5871 5873 5876 5878
5617 5633 5645 5655 5664 5673 5684 5693 5704 5715 5724 5731 5736 5742 5749 5756 5763 5766 5770 5777 5784 5786 5793 5799 5802 5802 5812 5819 5824 5828 5835 5836 5842 5847 5852 5855 5857 5859 5862 5864 5867 5870 5872 5873 5876
5607 5621 5638 5649 5658 5668 5676 5686 5696 5707 5716 5725 5730 5734 5741 5750 5759 5760 5765 5772 5778 5783 5787 5793 5798 5801 5808 5814 5820 5827 5829 5836 5842 5845 5849 5853 5856 5858 5860 5863 5865 5867 5869 5871 5874
5596 5610 5628 5642 5652 5663 5671 5680 5689 5699 5707 5714 5723 5729 5735 5744 5753 5757 5760 5766 5772 5776 5782 5790 5794 5800 5805 5810 5816 5823 5826 5833 5835 5841 5846 5849 5852 5856 5860 5862 5864 5867 5868 5870 5872
5590 5600 5617 5632 5644 5656 5665 5674 5683 5691 5700 5708 5717 5723 5729 5738 5745 5751 5756 5762 5767 5771 5777 5782 5789 5795 5800 5807 5813 5817 5823 5828 5832 5837 5842 5846 5850 5853 5857 5861 5862 5865 5867 5869 5870
5581 5594 5605 5621 5634 5646 5657 5667 5675 5683 5692 5701 5710 5717 5723 5732 5739 5745 5750 5757 5762 5767 5772 5778 5783 5791 5795 5804 5808 5812 5818 5822 5827 5832 5837 5841 5846 5852 5854 5856 5860 5862 5865 5868 5868
5575 5587 5597 5611 5626 5637 5649 5659 5667 5677 5685 5694 5701 5711 5718 5726 5733 5740 5746 5752 5757 5762 5767 5775 5778 5784 5790 5797 5803 5809 5812 5816 5822 5828 5833 5837 5845 5847 5850 5854 5856 5859 5862 5864 5866
5567 5578 5588 5600 5617 5628 5639 5650 5660 5669 5678 5686 5694 5704 5712 5720 5728 5733 5740 5746 5752 5758 5763 5767 5773 5779 5785 5791 5798 5803 5808 5813 5818 5823 5828 5833 5840 5843 5847 5851 5853 5855 5859 5861 5863
5557 5569 5581 5594 5607 5618 5628 5639 5650 5659 5669 5677 5686 5697 5708 5716 5722 5727 5734 5740 5746 5752 5757 5761 5768 5775 5780 5785 5791 5798 5803 5807 5811 5817 5823 5828 5834 5838 5842 5845 5848 5852 5856 5857 5860
5551 5563 5573 5586 5600 5610 5617 5627 5639 5650 5665 5677 5685 5691 5699 5707 5713 5721 5726 5733 5739 5746 5752 5758 5764 5770 5776 5782 5789 5794 5798 5801 5807 5813 5817 5822 5826 5830 5836 5839 5844 5849 5852 5852 5855
5543 5554 5567 5579 5592 5602 5613 5627 5643 5655 5657 5665 5674 5683 5692 5698 5706 5711 5719 5727 5734 5741 5746 5752 5757 5767 5771 5777 5783 5788 5795 5799 5805 5808 5810 5812 5819 5824 5829 5835 5840 5843 5845 5847 5849
5535 5547 5558 5572 5584 5595 5610 5619 5629 5641 5650 5659 5668 5675 5684 5693 5700 5709 5716 5721 5728 5735 5742 5750 5759 5763 5767 5773 5780 5783 5789 5792 5796 5800 5804 5807 5814 5818 5824 5828 5832 5837 5840 5842 5843
5531 5543 5554 5565 5579 5591 5602 5611 5621 5631 5640 5650 5659 5668 5676 5685 5693 5702 5707 5715 5723 5730 5734 5742 5749 5754 5760 5766 5771 5774 5780 5785 5789 5793 5797 5801 5805 5812 5817 5821 5827 5830 5832 5836 5838
5527 5538 5551 5566 5575 5585 5597 5605 5614 5622 5627 5638 5648 5660 5670 5679 5690 5694 5701 5709 5716 5723 5730 5737 5740 5747 5755 5761 5765 5770 5774 5778 5780 5785 5791 5795 5798 5808 5810 5816 5820 5822 5825 5828 5831
5521 5533 5545 5555 5568 5580 5587 5594 5600 5607 5614 5629 5640 5650 5662 5671 5682 5688 5694 5702 5709 5714 5722 5728 5735 5740 5747 5751 5756 5762 5767 5771 5773 5777 5782 5787 5791 5799 5806 5810 5813 5816 5819 5822 5823
5518 5529 5540 5550 5563 5570 5577 5583 5590 5598 5615 5623 5635 5644 5654 5663 5671 5679 5686 5693 5699 5706 5714 5721 5726 5734 5739 5745 5750 5754 5758 5760 5764 5768 5775 5778 5785 5796 5801 5804 5807 5809 5811 5814 5815
5514 5525 5533 5544 5553 5561 5567 5575 5586 5600 5609 5618 5629 5638 5647 5653 5662 5672 5677 5685 5695 5703 5709 5715 5722 5728 5733 5738 5745 5750 5754 5758 5761 5764 5770 5771 5779 5789 5794 5795 5797 5799 5804 5806 5807
5511 5518 5526 5536 5542 5551 5562 5569 5585 5592 5602 5611 5620 5629 5637 5647 5658 5664 5673 5680 5688 5695 5701 5706 5711 5717 5725 5728 5736 5740 5744 5749 5751 5756 5759 5764 5775 5780 5784 5788 5791 5792 5795 5797 5799
5506 5514 5521 5531 5537 5545 5555 5569 5576 5584 5593 5602 5613 5623 5632 5641 5648 5656 5665 5675 5681 5688 5694 5698 5703 5709 5716 5721 5727 5734 5739 5741 5742 5746 5750 5757 5763 5771 5775 5781 5783 5786 5787 5788 5790
5498 5505 5515 5525 5531 5538 5550 5560 5569 5578 5586 5595 5608 5618 5627 5635 5645 5652 5660 5666 5672 5680 5684 5689 5694 5701 5706 5713 5719 5724 5728 5732 5734 5738 5742 5747 5753 5761 5765 5769 5772 5775 5776 5779 5780
5490 5499 5508 5517 5525 5532 5544 5554 5562 5570 5580 5590 5599 5609 5618 5626 5634 5640 5649 5657 5664 5670 5676 5682 5684 5691 5700 5707 5710 5714 5720 5720 5723 5731 5730 5735 5744 5752 5753 5758 5760 5765 5767 5768 5769
5484 5493 5502 5510 5515 5527 5538 5547 5555 5565 5574 5583 5591 5602 5610 5617 5623 5630 5638 5642 5650 5658 5667 5672 5674 5681 5687 5694 5697 5701 5706 5709 5715 5717 5717 5724 5739 5741 5744 5748 5748 5750 5754 5756 5759
5477 5481 5491 5499 5511 5523 5532 5541 5549 5558 5568 5578 5587 5595 5601 5607 5614 5622 5628 5636 5643 5648 5652 5658 5665 5672 5682 5684 5689 5692 5697 5702 5703 5707 5717 5714 5731 5730 5733 5737 5737 5737 5736 5741 5744
5464 5470 5482 5491 5505 5516 5527 5537 5544 5553 5563 5572 5580 5588 5595 5601 5608 5614 5621 5628 5634 5639 5644 5650 5660 5668 5672 5672 5673 5676 5683 5689 5693 5704 5695 5714 5711 5726 5722 5721 5722 5720 5724 5725 5728
5457 5468 5478 5491 5501 5508 5517 5528 5539 5549 5558 5566 5574 5580 5586 5592 5602 5610 5615 5620 5626 5631 5636 5644 5651 5657 5660 5662 5663 5666 5677 5683 5681 5687 5685 5694 5696 5720 5709 5706 5705 5707 5709 5711 5713
5447 5461 5474 5482 5491 5501 5512 5522 5532 5542 5550 5559 5566 5573 5579 5587 5596 5601 5607 5614 5620 5625 5630 5637 5644 5648 5649 5652 5653 5661 5676 5667 5671 5675 5676 5677 5692 5697 5693 5688 5685 5688 5692 5697 5699